Airfield :
LOGIN :

Register | Disclaimer

   EN    FR    IT 

 










Legend :    VFR   Marginal VFR   IFR   Intensive IFR   Very Intensive IFR
Visi :
Ceiling :
>= 8 km
>= 3000ft
5 to 8 km
1000 to 3000 ft
1500m to 5 km
500 to 1000 ft
800 to 1500m
200 to 500 ft
< 800m
< 200 ft
Symbols :   Thunderstorms  Fog  Heavy snow  Heavy precipitations  Wind > 20 kt
SIGMETs :     Misc.  Thunderstorms  Icing  Turbulence  Mountain Waves  Volcanic Ashes







- Airport Elevation : 1475 ft


LSZC - Buochs Stans

CURRENT METAR :
  • 201750Z AUTO 27004KT 200V310 9999 FEW060 24/16 Q1018

EXPIRED METARs :
  • 201720Z AUTO VRB02KT CAVOK 26/15 Q1018
  • 201650Z AUTO 06003KT 040V110 CAVOK 28/14 Q1018
  • 201620Z AUTO 05004KT 020V100 CAVOK 28/13 Q1018
  • 201550Z AUTO 03004KT 280V060 CAVOK 29/13 Q1018
  • 201520Z AUTO VRB04KT CAVOK 29/14 Q1018

TAF TAF LSZC
Valid from the 20 at 15:00 until the 21 at 00:00 UTC


201425Z 2015/2024 VRB03KT CAVOK
PROB30
TEMPO 2015/2019 SHRA FEW050TCU
No reported NOTAMs for that airfield.



MET'MAP, your aeronautical weather chart ! - Copyright ORBIFLY December 2007 - Disclaimer

ORBIFLY MET'MAP TEAM :

Programming & Development : Alexandra Zaïnal
Concept & Development : Baudouin d'Aumeries
Co-Development & Prog : Marc-Olivier Méhu
Technical & hardware support : Manuel Goepfert

Contact : metmap@orbifly.com




SOURCES & CREDITS :

   NOAA